Weather History for Barter Island, AK

Change the Weather History Date:

Friday, November 30, 2012

  Actual Average Record
Temperature  
Mean Temperature 4 °F -  
Max Temperature 5 °F 6 °F 28 °F (2002)
Min Temperature 3 °F -3 °F -23 °F (2011)
Degree Days  
Heating Degree Days 60    
Moisture  
Dew Point 2 °F    
Average Humidity 90    
Maximum Humidity 92    
Minimum Humidity 85    
Precipitation  
Precipitation 0.00 in - - ()
Sea Level Pressure  
Sea Level Pressure 30.18 in    
Wind  
Wind Speed 20 mph (West)    
Max Wind Speed 26 mph    
Max Gust Speed 29 mph    
Visibility 3 miles    
Events Snow    
Averages and records for this station are not official NWS values.
T = Trace of Precipitation, MM = Missing Value Source: NWS Daily Summary

Daily Weather History Graph

Daily Weather History Graph

Search for Another Location

Airport:

Trip Planner

Search our weather history database for the weather conditions in past years. The results will help you decide how hot, cold, wet, or windy it might be!

Date:

Astronomy

Nov. 30, 2012 Rise Set
Actual Time 11:50 AM AKST 12:55 PM AKST
Civil Twilight 9:46 AM AKST 2:59 PM AKST
Nautical Twilight 8:09 AM AKST 4:36 PM AKST
Astronomical Twilight 6:52 AM AKST 5:53 PM AKST
Moon No Moon Rise No Moon Set
Length of Visible Light 5h 12m
Length of Day
1h 04m
Waning Gibbous, 95% of the Moon is Illuminated
Nov 30
Waning Gibbous
Dec 6
Last Quarter
Dec 12
New
Dec 19
First Quarter
Dec 28
Full

Hourly Weather History & Observations

Time (AKST) Temp. Windchill Dew Point Humidity Pressure Visibility Wind Dir Wind Speed Gust Speed Precip Events Conditions
12:01 AM 6.1 °F -11.6 °F 3.0 °F 87% 30.34 in 10.0 mi West 15.0 mph - N/A   Partly Cloudy
1:01 AM 5.0 °F -13.6 °F 1.9 °F 87% 30.34 in 9.0 mi West 16.1 mph - 0.00 in Snow Light Snow
2:01 AM 3.9 °F -13.7 °F 1.9 °F 91% 30.32 in 9.0 mi West 13.8 mph - 0.00 in Snow Light Snow
3:01 AM 3.9 °F -16.6 °F 1.0 °F 88% 30.31 in 8.0 mi West 19.6 mph - 0.00 in Snow Light Snow
4:01 AM 3.9 °F -17.1 °F 1.9 °F 91% 30.30 in 7.0 mi West 20.7 mph - 0.00 in Snow Light Snow
5:01 AM 3.9 °F -16.1 °F 1.9 °F 91% 30.28 in 7.0 mi West 18.4 mph - 0.00 in Snow Light Snow
6:01 AM 3.9 °F -17.1 °F 1.9 °F 91% 30.28 in 4.0 mi West 20.7 mph - 0.00 in Snow Light Snow
7:01 AM 3.2 °F -20.3 °F 1.4 °F 92% 30.27 in 2.5 mi West 26.5 mph - 0.00 in Snow Light Snow
7:15 AM 3.9 °F -19.0 °F 1.0 °F 88% 30.27 in 2.5 mi West 25.3 mph - 0.00 in Snow Light Snow
7:29 AM 3.2 °F -19.0 °F 1.4 °F 92% 30.26 in 3.0 mi West 23.0 mph - 0.00 in Snow Light Snow
8:01 AM 3.2 °F -19.5 °F 1.4 °F 92% 30.26 in 2.0 mi West 24.2 mph - 0.00 in Snow Light Snow
8:12 AM 3.0 °F -19.3 °F 1.0 °F 91% 30.26 in 2.0 mi West 23.0 mph - 0.00 in Snow Light Snow
8:27 AM 3.2 °F -19.9 °F 1.4 °F 92% 30.25 in 1.8 mi West 25.3 mph - 0.00 in Snow Light Snow
8:40 AM 3.2 °F -18.1 °F 1.4 °F 92% 30.25 in 2.5 mi West 20.7 mph - 0.00 in Snow Light Snow
8:47 AM 3.2 °F -19.0 °F 1.4 °F 92% 30.25 in 3.0 mi West 23.0 mph - 0.00 in Snow Light Snow
8:57 AM 3.2 °F -20.3 °F 1.4 °F 92% 30.25 in 2.5 mi West 26.5 mph - 0.00 in Snow Light Snow
9:01 AM 3.0 °F -19.3 °F 1.0 °F 91% 30.24 in 2.5 mi West 23.0 mph - 0.00 in Snow Light Snow
9:21 AM 3.2 °F -18.1 °F 1.4 °F 92% 30.23 in 1.5 mi West 20.7 mph - 0.00 in Snow Light Snow
9:31 AM 3.2 °F -18.6 °F 1.4 °F 92% 30.23 in 3.0 mi West 21.9 mph - 0.00 in Snow Light Snow
9:38 AM 3.2 °F -19.5 °F 1.4 °F 92% 30.23 in 1.8 mi West 24.2 mph - 0.00 in Snow Light Snow
10:01 AM 3.9 °F -18.1 °F 1.9 °F 91% 30.23 in 1.8 mi West 23.0 mph - 0.00 in Snow Light Snow
10:38 AM 3.2 °F -18.6 °F 1.4 °F 92% 30.22 in 2.0 mi West 21.9 mph - 0.00 in Snow Light Snow
10:50 AM 3.2 °F -19.0 °F 1.4 °F 92% 30.22 in 1.5 mi West 23.0 mph - 0.00 in Snow Light Snow
11:01 AM 3.9 °F -19.0 °F 1.9 °F 91% 30.22 in 1.2 mi West 25.3 mph - 0.00 in Snow Light Snow
11:09 AM 3.2 °F -18.6 °F 1.4 °F 92% 30.21 in 1.0 mi West 21.9 mph - 0.00 in Snow Light Snow
11:33 AM 3.2 °F -18.1 °F 1.4 °F 92% 30.21 in 1.8 mi West 20.7 mph - 0.00 in Snow Light Snow
12:01 PM 3.9 °F -16.1 °F 1.9 °F 91% 30.20 in 1.5 mi West 18.4 mph - 0.00 in Snow Light Snow
12:49 PM 3.2 °F -18.1 °F 1.4 °F 92% 30.19 in 2.0 mi West 20.7 mph - 0.00 in Snow Light Snow
1:01 PM 3.2 °F -18.6 °F 1.4 °F 92% 30.19 in 1.5 mi West 21.9 mph - 0.00 in Snow Light Snow
1:16 PM 3.9 °F -17.6 °F 1.0 °F 88% 30.19 in 1.8 mi West 21.9 mph - 0.00 in Snow Light Snow
1:32 PM 3.2 °F -18.6 °F 1.4 °F 92% 30.18 in 1.0 mi West 21.9 mph - 0.00 in Snow Light Snow
1:40 PM 3.2 °F -18.1 °F 1.4 °F 92% 30.18 in 1.8 mi West 20.7 mph - 0.00 in Snow Light Snow
2:01 PM 3.9 °F -17.1 °F 1.9 °F 91% 30.17 in 1.5 mi West 20.7 mph - 0.00 in Snow Light Snow
2:26 PM 3.2 °F -18.1 °F 1.4 °F 92% 30.17 in 3.0 mi West 20.7 mph - 0.00 in Snow Light Snow
2:37 PM 3.2 °F -18.6 °F 1.4 °F 92% 30.16 in 2.0 mi West 21.9 mph - 0.00 in Snow Light Snow
3:01 PM 5.0 °F -17.1 °F 1.9 °F 87% 30.17 in 2.5 mi West 24.2 mph - 0.00 in Snow Light Snow
3:18 PM 5.0 °F -16.7 °F 3.2 °F 92% 30.16 in 4.0 mi West 23.0 mph - 0.00 in Snow Light Snow
3:37 PM 5.0 °F -17.1 °F 3.2 °F 92% 30.15 in 2.5 mi West 24.2 mph - 0.00 in Snow Light Snow
3:46 PM 5.0 °F -14.7 °F 3.2 °F 92% 30.15 in 4.0 mi West 18.4 mph 28.8 mph 0.00 in Snow Light Snow
4:01 PM 6.1 °F -15.2 °F 3.0 °F 87% 30.15 in 3.0 mi West 23.0 mph 28.8 mph 0.00 in Snow Light Snow
4:14 PM 6.8 °F -13.8 °F 3.2 °F 85% 30.15 in 2.5 mi West 21.9 mph - 0.00 in Snow Light Snow
5:01 PM 5.0 °F -16.7 °F 3.0 °F 92% 30.14 in 2.5 mi West 23.0 mph - 0.00 in Snow Light Snow
5:34 PM 3.2 °F -19.0 °F 1.4 °F 92% 30.13 in 3.0 mi West 23.0 mph - 0.00 in Snow Light Snow
5:44 PM 3.2 °F -17.6 °F 1.4 °F 92% 30.13 in 2.5 mi West 19.6 mph - 0.00 in Snow Light Snow
6:01 PM 3.9 °F -19.0 °F 1.9 °F 91% 30.13 in 2.5 mi West 25.3 mph - 0.00 in Snow Light Snow
6:17 PM 3.2 °F -18.6 °F 1.4 °F 92% 30.12 in 4.0 mi West 21.9 mph - 0.00 in Snow Light Snow
6:59 PM 3.2 °F -19.0 °F 1.4 °F 92% 30.12 in 3.0 mi West 23.0 mph - N/A Snow Light Snow
7:01 PM 3.9 °F -18.1 °F 1.9 °F 91% 30.12 in 3.0 mi West 23.0 mph - 0.00 in Snow Light Snow
7:22 PM 5.0 °F -15.7 °F 1.4 °F 85% 30.12 in 2.5 mi West 20.7 mph - 0.00 in Snow Light Snow
7:52 PM 5.0 °F -16.7 °F 1.4 °F 85% 30.11 in 2.5 mi West 23.0 mph - N/A Snow Light Snow
8:01 PM 5.0 °F -15.7 °F 3.2 °F 92% 30.11 in 1.8 mi West 20.7 mph - 0.00 in Snow Light Snow
8:08 PM 5.0 °F -17.1 °F 3.2 °F 92% 30.10 in 2.0 mi West 24.2 mph - 0.00 in Snow Light Snow
8:21 PM 5.0 °F -15.7 °F 3.2 °F 92% 30.10 in 1.8 mi West 20.7 mph - 0.00 in Snow Light Snow
8:31 PM 5.0 °F -14.7 °F 1.4 °F 85% 30.10 in 2.5 mi West 18.4 mph - 0.00 in Snow Light Snow
8:43 PM 5.0 °F -15.2 °F 1.4 °F 85% 30.09 in 2.5 mi West 19.6 mph - 0.00 in Snow Light Snow
8:53 PM 5.0 °F -15.2 °F 1.4 °F 85% 30.09 in 3.0 mi West 19.6 mph - 0.00 in Snow Light Snow
8:59 PM 5.0 °F -15.7 °F 3.2 °F 92% 30.09 in 3.0 mi West 20.7 mph - N/A Snow Light Snow
9:01 PM 5.0 °F -15.7 °F 1.9 °F 87% 30.09 in 3.0 mi West 20.7 mph - 0.00 in Snow Light Snow
9:11 PM 5.0 °F -14.7 °F 1.4 °F 85% 30.08 in 2.5 mi West 18.4 mph - 0.00 in Snow Light Snow
9:17 PM 5.0 °F -15.2 °F 1.4 °F 85% 30.08 in 3.0 mi West 19.6 mph - 0.00 in Snow Light Snow
9:53 PM 5.0 °F -14.7 °F 3.2 °F 92% 30.07 in 3.0 mi West 18.4 mph - N/A Snow Light Snow
10:01 PM 5.0 °F -14.7 °F 3.0 °F 92% 30.07 in 5.0 mi West 18.4 mph - 0.00 in Snow Light Snow
10:35 PM 5.0 °F -15.2 °F 1.4 °F 85% 30.06 in 5.0 mi West 19.6 mph - 0.00 in Snow Light Snow
11:01 PM 5.0 °F -14.7 °F 1.4 °F 85% 30.06 in 4.0 mi West 18.4 mph - 0.00 in Snow Light Snow
11:51 PM 5.0 °F -13.6 °F 3.2 °F 92% 30.06 in 4.0 mi West 16.1 mph - N/A Snow Light Snow